Weather History for KCFS - April, 2013

Change the Weather History Date:

Thursday, April 25, 2013

  Actual Average (KMBS) Record (KMBS)
Temperature  
Mean Temperature 41 °F 50 °F  
Max Temperature 50 °F 60 °F - ()
Min Temperature 31 °F 39 °F - ()
Degree Days  
Heating Degree Days 24    
Month to date heating degree days  
Since 1 July heating degree days  
Cooling Degree Days 0    
Month to date cooling degree days  
Year to date cooling degree days  
Moisture  
Dew Point 30 °F    
Average Humidity 71    
Maximum Humidity 94    
Minimum Humidity 40    
Precipitation  
Precipitation 0.00 in 0.10 in - ()
Month to date precipitation 2.38  
Year to date precipitation 7.76  
Snow  
Snow 0.00 in - - ()
Month to date snowfall  
Since 1 July snowfall  
Snow Depth -    
Sea Level Pressure  
Sea Level Pressure 30.12 in    
Wind  
Wind Speed 8 mph (SW)    
Max Wind Speed 22 mph    
Max Gust Speed 29 mph    
Visibility 10 miles    
Events Rain    
T = Trace of Precipitation, MM = Missing Value Source: NWS Daily Summary

Daily Weather History Graph

Daily Weather History Graph

Search for Another Location

Airport or City:

Trip Planner

Search our weather history database for the weather conditions in past years. The results will help you decide how hot, cold, wet, or windy it might be!

Date:

Astronomy

Apr. 25, 2013 Rise Set
Actual Time 6:35 AM EDT 8:29 PM EDT
Civil Twilight 6:04 AM EDT 8:59 PM EDT
Nautical Twilight 5:26 AM EDT 9:37 PM EDT
Astronomical Twilight 4:46 AM EDT 10:18 PM EDT
Moon 8:42 PM EDT (4/25) 6:17 AM EDT (4/25)
Length of Visible Light 14h 55m
Length of Day
13h 54m
Full, 100% of the Moon is Illuminated
Apr 25
Full
Apr 25
Full
May 2
Last Quarter
May 9
New
May 18
First Quarter

Hourly Weather History & Observations

Time (EDT) Temp. Windchill Dew Point Humidity Pressure Visibility Wind Dir Wind Speed Gust Speed Precip Events Conditions
12:15 AM 33.8 °F 28.6 °F 25.5 °F 72% 30.08 in 10.0 mi SW 5.8 mph - N/A   Clear
12:35 AM 36.0 °F 29.6 °F 25.7 °F 66% 30.08 in 10.0 mi SW 8.1 mph - N/A   Clear
12:55 AM 36.5 °F 30.3 °F 26.1 °F 66% 30.08 in 10.0 mi SW 8.1 mph - N/A   Clear
1:15 AM 36.3 °F 30.1 °F 26.6 °F 68% 30.09 in 10.0 mi SW 8.1 mph - N/A   Clear
1:35 AM 35.2 °F 30.3 °F 26.6 °F 71% 30.08 in 10.0 mi SW 5.8 mph - N/A   Clear
1:55 AM 33.8 °F 28.6 °F 26.6 °F 75% 30.08 in 10.0 mi SSW 5.8 mph - N/A   Clear
2:15 AM 33.8 °F 28.6 °F 25.9 °F 73% 30.07 in 10.0 mi SSW 5.8 mph - N/A   Clear
2:35 AM 33.1 °F 30.0 °F 26.4 °F 77% 30.07 in 10.0 mi South 3.5 mph - N/A   Clear
2:55 AM 32.9 °F 29.8 °F 26.6 °F 78% 30.06 in 10.0 mi South 3.5 mph - N/A   Clear
3:15 AM 32.0 °F 28.7 °F 26.4 °F 80% 30.06 in 10.0 mi South 3.5 mph - N/A   Clear
3:34 AM 32.0 °F 26.4 °F 26.1 °F 79% 30.06 in 10.0 mi SSW 5.8 mph - N/A   Clear
3:55 AM 32.2 °F 26.7 °F 26.6 °F 80% 30.06 in 10.0 mi SSW 5.8 mph - N/A   Clear
4:15 AM 32.2 °F 26.7 °F 26.6 °F 80% 30.06 in 10.0 mi SSW 5.8 mph - N/A   Clear
4:34 AM 32.4 °F 26.9 °F 26.6 °F 79% 30.05 in 10.0 mi SSW 5.8 mph - N/A   Clear
4:55 AM 32.5 °F 27.1 °F 27.0 °F 80% 30.06 in 10.0 mi SSW 5.8 mph - N/A   Clear
5:15 AM 33.1 °F 27.7 °F 27.3 °F 79% 30.06 in 10.0 mi South 5.8 mph - N/A   Clear
5:35 AM 33.8 °F 28.6 °F 27.5 °F 78% 30.05 in 10.0 mi South 5.8 mph - N/A   Clear
5:55 AM 33.3 °F 27.1 °F 27.7 °F 80% 30.06 in 10.0 mi SSW 6.9 mph - N/A   Clear
6:15 AM 34.7 °F 28.8 °F 28.2 °F 77% 30.06 in 10.0 mi SSW 6.9 mph - N/A   Clear
6:35 AM 34.9 °F 29.0 °F 28.4 °F 77% 30.06 in 10.0 mi South 6.9 mph - N/A   Clear
6:55 AM 34.9 °F 29.9 °F 28.6 °F 78% 30.06 in 10.0 mi South 5.8 mph - N/A   Clear
7:15 AM 36.1 °F 30.6 °F 29.3 °F 76% 30.06 in 10.0 mi South 6.9 mph - N/A   Clear
7:35 AM 37.4 °F 32.1 °F 29.8 °F 74% 30.05 in 10.0 mi South 6.9 mph - N/A   Clear
7:55 AM 38.3 °F 31.9 °F 30.0 °F 72% 30.05 in 10.0 mi South 9.2 mph - N/A   Clear
8:15 AM 39.2 °F 33.6 °F 30.2 °F 70% 30.05 in 10.0 mi South 8.1 mph - N/A   Clear
8:35 AM 40.8 °F 35.6 °F 31.1 °F 68% 30.04 in 10.0 mi South 8.1 mph - N/A   Clear
8:55 AM 41.7 °F 36.1 °F 30.9 °F 66% 30.04 in 10.0 mi South 9.2 mph 16.1 mph N/A   Scattered Clouds
9:15 AM 43.0 °F 36.8 °F 31.1 °F 63% 30.04 in 10.0 mi South 11.5 mph 17.3 mph N/A   Mostly Cloudy
9:35 AM 43.9 °F 37.9 °F 31.8 °F 63% 30.04 in 10.0 mi SSW 11.5 mph - N/A   Overcast
9:55 AM 45.5 °F 39.6 °F 32.0 °F 59% 30.04 in 10.0 mi SW 12.7 mph 20.7 mph N/A   Scattered Clouds
10:15 AM 46.0 °F 39.0 °F 32.9 °F 60% 30.04 in 10.0 mi SW 17.3 mph 23.0 mph N/A   Mostly Cloudy
10:35 AM 44.8 °F 36.4 °F 32.4 °F 62% 30.04 in 10.0 mi SW 21.9 mph 28.8 mph N/A   Overcast
10:54 AM 42.8 °F 34.5 °F 33.6 °F 70% 30.05 in 7.0 mi WSW 18.4 mph 25.3 mph N/A Rain Rain
11:15 AM 40.1 °F 33.6 °F 36.3 °F 86% 30.06 in 4.0 mi SSW 10.4 mph - N/A Rain Light Rain
11:35 AM 40.8 °F 32.6 °F 37.9 °F 89% 30.07 in 5.0 mi SSW 16.1 mph 20.7 mph N/A   Light Drizzle
11:55 AM 40.5 °F 33.2 °F 37.4 °F 89% 30.07 in 10.0 mi SW 12.7 mph 18.4 mph N/A   Overcast
12:15 PM 41.0 °F 33.9 °F 38.1 °F 89% 30.07 in 10.0 mi SSW 12.7 mph 17.3 mph N/A   Overcast
12:35 PM 41.4 °F 35.2 °F 37.8 °F 87% 30.08 in 10.0 mi SW 10.4 mph - N/A   Overcast
12:55 PM 41.9 °F 34.3 °F 36.9 °F 82% 30.08 in 10.0 mi SW 15.0 mph 21.9 mph N/A   Overcast
1:15 PM 41.9 °F 35.4 °F 36.3 °F 81% 30.08 in 10.0 mi SW 11.5 mph 19.6 mph N/A   Overcast
1:35 PM 43.2 °F 35.0 °F 37.4 °F 80% 30.08 in 10.0 mi SW 18.4 mph 25.3 mph N/A   Overcast
1:55 PM 45.0 °F 37.9 °F 37.4 °F 75% 30.08 in 10.0 mi WSW 16.1 mph 24.2 mph N/A   Overcast
2:15 PM 44.4 °F 37.5 °F 35.8 °F 72% 30.09 in 10.0 mi West 15.0 mph 23.0 mph N/A   Drizzle
2:35 PM 42.4 °F 34.7 °F 36.7 °F 80% 30.11 in 10.0 mi WSW 16.1 mph 20.7 mph N/A   Overcast
2:55 PM 45.0 °F 39.7 °F 38.1 °F 77% 30.11 in 10.0 mi West 10.4 mph - N/A   Mostly Cloudy
3:15 PM 46.4 °F 40.1 °F 37.4 °F 71% 30.11 in 10.0 mi West 15.0 mph 18.4 mph N/A   Overcast
3:35 PM 49.6 °F - 36.0 °F 59% 30.11 in 10.0 mi West 17.3 mph 25.3 mph N/A   Mostly Cloudy
3:55 PM 49.6 °F - 31.8 °F 50% 30.11 in 10.0 mi West 15.0 mph 25.3 mph N/A   Mostly Cloudy
4:15 PM 48.4 °F - 31.8 °F 53% 30.12 in 10.0 mi West 19.6 mph 25.3 mph N/A   Mostly Cloudy
4:35 PM 50.5 °F - 28.8 °F 43% 30.12 in 10.0 mi West 18.4 mph 24.2 mph N/A   Scattered Clouds
4:55 PM 48.7 °F - 28.6 °F 46% 30.13 in 10.0 mi West 15.0 mph 25.3 mph N/A   Scattered Clouds
5:15 PM 50.4 °F - 27.5 °F 41% 30.14 in 10.0 mi West 18.4 mph 26.5 mph N/A   Scattered Clouds
5:35 PM 50.0 °F - 28.6 °F 44% 30.15 in 10.0 mi West 15.0 mph 23.0 mph N/A   Mostly Cloudy
5:54 PM 49.8 °F - 27.0 °F 41% 30.17 in 10.0 mi WNW 15.0 mph 18.4 mph N/A   Mostly Cloudy
6:15 PM 49.8 °F - 26.1 °F 40% 30.18 in 10.0 mi WNW 13.8 mph 21.9 mph N/A   Scattered Clouds
6:34 PM 48.2 °F - 26.6 °F 43% 30.19 in 10.0 mi NNW 13.8 mph 20.7 mph N/A   Mostly Cloudy
6:55 PM 48.0 °F - 26.6 °F 43% 30.20 in 10.0 mi NW 13.8 mph 19.6 mph N/A   Mostly Cloudy
7:15 PM 47.3 °F - 26.6 °F 45% 30.20 in 10.0 mi NW 9.2 mph 17.3 mph N/A   Scattered Clouds
7:34 PM 46.4 °F 42.9 °F 27.9 °F 48% 30.21 in 10.0 mi NW 6.9 mph - N/A   Scattered Clouds
7:55 PM 45.0 °F 42.6 °F 28.6 °F 53% 30.22 in 10.0 mi NW 4.6 mph - N/A   Scattered Clouds
8:14 PM 43.5 °F 41.9 °F 28.8 °F 56% 30.22 in 10.0 mi NW 3.5 mph - N/A   Scattered Clouds
8:35 PM 42.1 °F - 29.1 °F 60% 30.23 in 10.0 mi Calm Calm - N/A   Clear
8:55 PM 38.3 °F - 32.0 °F 78% 30.24 in 10.0 mi Calm Calm - N/A   Clear
9:15 PM 37.0 °F - 32.0 °F 82% 30.25 in 10.0 mi Calm Calm - N/A   Scattered Clouds
9:35 PM 37.0 °F - 32.0 °F 82% 30.27 in 10.0 mi Calm Calm - N/A   Scattered Clouds
9:54 PM 35.8 °F - 31.8 °F 86% 30.28 in 10.0 mi Calm Calm - N/A   Clear
10:15 PM 34.0 °F - 31.1 °F 89% 30.29 in 10.0 mi Calm Calm - N/A   Clear
10:35 PM 33.6 °F - 31.1 °F 90% 30.29 in 10.0 mi Calm Calm - N/A   Clear
10:55 PM 32.7 °F - 30.4 °F 91% 30.30 in 10.0 mi Calm Calm - N/A   Clear
11:15 PM 32.2 °F - 30.6 °F 94% 30.30 in 10.0 mi Calm Calm - N/A   Clear
11:35 PM 32.0 °F - 30.2 °F 93% 30.31 in 10.0 mi Calm Calm - N/A   Clear
11:55 PM 31.8 °F - 30.0 °F 93% 30.31 in 10.0 mi Calm Calm - N/A   Clear